Location: Four Corners
(38.2757°N, 122.4608°W)
Time: 04:57:15
(UTC+00:00)

FALCON 9 DEB - Pass Details

Date: 08 December 2019
Orbit: 431 x 443 km, 53.0° (Epoch: 25 January)

Event Time Altitude Azimuth Distance (km) Brightness Sun altitude
Rises 02:33:37 0° 233° (SW) 2,419 8.1 -19.9°
Reaches altitude 10° 02:35:44 10° 236° (SW) 1,551 6.9 -20.3°
Maximum altitude 02:39:13 69° 320° (NW) 474 3.3 -21.0°
Enters shadow 02:39:19 68° 335° (NNW) 476 3.2 -21.0°
